Cross City, FL

10:43 AM EST on January 19, 2017 (GMT -0500)
Cross City

Weather History for KCTY - December, 2012

Change the Weather History Date:

Thursday, December 13, 2012

  Actual Average Record
Temperature  
Mean Temperature 53 °F 55 °F  
Max Temperature 57 °F 67 °F 85 °F (2015)
Min Temperature 48 °F 43 °F 28 °F (2010)
Degree Days  
Heating Degree Days 12 11  
Month to date heating degree days 28 119  
Since 1 July heating degree days 236 287  
Cooling Degree Days 0 1  
Month to date cooling degree days 7 13  
Year to date cooling degree days 2804 2615  
Growing Degree Days 2 (Base 50)    
Moisture  
Dew Point 49 °F    
Average Humidity 90    
Maximum Humidity 100    
Minimum Humidity 83    
Precipitation  
Precipitation 0.02 in 0.08 in 0.40 in (1998)
Month to date precipitation 0.95 1.18  
Year to date precipitation 58.64 47.02  
Sea Level Pressure  
Sea Level Pressure 30.21 in    
Wind  
Wind Speed 9 mph (NNE)    
Max Wind Speed 15 mph    
Max Gust Speed 20 mph    
T = Trace of Precipitation, MM = Missing Value Source: NWS Daily Summary

Daily Weather History Graph

Daily Weather History Graph

Search for Another Location

Airport or City:

Trip Planner

Search our weather history database for the weather conditions in past years. The results will help you decide how hot, cold, wet, or windy it might be!

Date:

Astronomy

Dec. 13, 2012 Rise Set
Actual Time 7:18 AM EST 5:34 PM EST
Civil Twilight 6:52 AM EST 6:01 PM EST
Nautical Twilight 6:23 AM EST 6:30 PM EST
Astronomical Twilight 5:53 AM EST 6:59 PM EST
Moon 7:27 AM EST (12/13) 6:14 PM EST (12/13)
Length of Visible Light 11h 08m
Length of Day
10h 15m
New Moon, 0% of the Moon is Illuminated
Dec 13
New Moon
Dec 20
First Quarter
Dec 28
Full
Jan 4
Last Quarter
Jan 11
New

Hourly Weather History & Observations

Time (EST) Temp. Dew Point Humidity Pressure Visibility Wind Dir Wind Speed Gust Speed Precip Events Conditions
12:53 AM 55.9 °F 55.0 °F 97% 30.13 in - North 8.1 mph - N/A   Unknown
1:53 AM 54.0 °F 52.0 °F 93% 30.14 in - North 9.2 mph - 0.02 in   Unknown
2:53 AM 53.1 °F 52.0 °F 96% 30.13 in - North 4.6 mph - N/A   Unknown
3:53 AM 53.1 °F 52.0 °F 96% 30.12 in - NE 5.8 mph - N/A   Unknown
4:53 AM 53.1 °F 51.1 °F 93% 30.14 in - North 8.1 mph - N/A   Unknown
5:53 AM 53.1 °F 51.1 °F 93% 30.16 in - North 8.1 mph - N/A   Unknown
6:53 AM 51.1 °F 50.0 °F 96% 30.19 in - North 8.1 mph - N/A   Unknown
7:53 AM 51.1 °F 50.0 °F 96% 30.20 in - North 8.1 mph - N/A   Unknown
8:53 AM 52.0 °F 50.0 °F 93% 30.23 in - NNE 8.1 mph - N/A   Unknown
9:53 AM 52.0 °F 50.0 °F 93% 30.26 in - North 12.7 mph - N/A   Unknown
10:53 AM 52.0 °F 48.9 °F 89% 30.26 in - NNE 12.7 mph - N/A   Unknown
11:53 AM 53.1 °F 48.9 °F 86% 30.25 in - NNE 12.7 mph - N/A   Unknown
12:53 PM 53.1 °F 48.9 °F 86% 30.24 in - NNE 8.1 mph - N/A   Unknown
1:53 PM 52.0 °F 48.0 °F 86% 30.23 in - NNE 11.5 mph - N/A   Unknown
2:53 PM 53.1 °F 48.0 °F 83% 30.22 in - NNE 13.8 mph 17.3 mph N/A   Unknown
3:53 PM 52.0 °F 46.9 °F 83% 30.21 in - NNE 12.7 mph - N/A   Unknown
4:53 PM 51.1 °F 46.9 °F 86% 30.23 in - NNE 8.1 mph - N/A   Unknown
5:53 PM 50.0 °F 46.0 °F 86% 30.24 in - NE 8.1 mph - N/A   Unknown
6:53 PM 50.0 °F 46.0 °F 86% 30.25 in - NE 5.8 mph - N/A   Unknown
7:53 PM 48.9 °F 46.0 °F 90% 30.27 in - NE 8.1 mph - N/A   Unknown
8:53 PM 48.9 °F 45.0 °F 86% 30.27 in - NE 8.1 mph - N/A   Unknown
9:53 PM 48.0 °F 45.0 °F 89% 30.28 in - NE 8.1 mph - N/A   Unknown
10:53 PM 48.0 °F 46.0 °F 93% 30.29 in - ENE 8.1 mph - N/A   Unknown
11:53 PM 48.0 °F 44.1 °F 86% 30.29 in - Variable 5.8 mph - N/A   Unknown